DMSP 5D-2 F13 DEB

Satellite information

Favourite Embed

Satellite Type and Status

DEBRISIN ORBIT

Key statistics

Satellite DMSP 5D-2 F13 DEB at a glance.

Uptime

11003

Days in orbit

Revolutions

≈ 14.2

Per day

Orbit

SSO

Sun Synchronous Orbit

Inclination

98.7

Latest

Satellite identification and parameters

Extended collection of information and parameters for DMSP 5D-2 F13 DEB.

Object identification

Identified? True

Debris? True

Object name: DMSP 5D-2 F13 DEB

International designator: 1995-015GH

Object number (NORAD): 42267

Object ID (CCSDS): 42267

Country: UNITED STATES OF AMERICA (US)

Current information (Y/N): Y

RCS size: SMALL

Orbital parameters

Period: 101.753 minutes

Inclination: 98.7393 deg

SMA: 7219.786 km

Apoapsis: 902.091 km

Periapsis: 781.211 km

RAAN: 13.1494 deg

Eccentricy: 0.0083714

Argument of periapsis: 300.9012 deg

Mean anomaly: 58.395 deg

Mean motion: 14.15195026 rev/day

Mean motion (dot): 0.00006817 rev/day2

B* drag term: 0.0034115 1/REarth

Two-line elements (TLE)

Creation date: May 5, 2025, 6:26 a.m.

Reference frame: TEME

Reference center: EARTH

Epoch: May 4, 2025, 9:41 p.m. UTC

TLE line 0: 0 DMSP 5D-2 F13 DEB

TLE line 1: 1 42267U 95015GH 25124.90392049 .00006817 00000-0 34115-2 0 9999

TLE line 2: 2 42267 98.7393 13.1494 0083714 300.9012 58.3950 14.15195026513038

Live tracking on map

Real-time ground track for satellite DMSP 5D-2 F13 DEB.

In-orbit conjunctions

A list of the most updated potential collisions computed for object DMSP 5D-2 F13 DEB.

Target Orbit TCA Probability of collision Miss distance Type
THOR AGENA D R/B LEO 2024-12-12 17:51:48 0.0001001366 323.0 (m) ROCKET BODY
SPOT 3 SSO 2024-06-30 20:13:13 0.0001982891 547.0 (m) PAYLOAD

Associated space launch

Military meteorological satellite

DMSP 5D-2 F13 DEB was lifted into orbit during the mission ‘Atlas E | DMSP-5D2 F13’, on board a Atlas E space rocket.

The launch took place on March 24, 1995, 2:05 p.m. from Space Launch Complex 3W.

For more information about the launch, click the button.

Launch to space Atlas E | DMSP-5D2 F13
Atlas E | DMSP-5D2 F13

Agency: N/A

Status: Launch Successful

Launch date: March 24, 1995, 2:05 p.m. UTC

Rocket: Atlas E

Launch pad: Space Launch Complex 3W

Location: Vandenberg SFB, CA, USA

...

Latest news about this satellite

There are no fresh news available about this satellite. Check back as we update our databases every day.


Newsletter sign-up

Weekly statistics, charts and insights to help you stay on top of the space industry.